Flag for Australia Weather past 2 weeks in Rockhampton, Queensland, Australia

Now
72 °F

Passing clouds.


Feels Like: 77 °F
Forecast: 52 / 77 °F
Wind: 9 mph from Southeast

Location: Rockhampton Airport

Current Time: Jul 31, 2015 at 11:44:46 AM

Latest Report: Jul 31, 2015 at 11:00 AM


Visibility: N/A

Pressure: 30.21 "Hg

Humidity: 44%

Dew point: 48 °F

Location of RockhamptonLocation

Historic Weather in Rockhampton — Graph

°F

Rockhampton temperature yesterday

Maximum temperature yesterday: 73 °F (at 1:00 PM)
Minimum temperature yesterday: 57 °F (at 3:00 AM)
Average temperature yesterday: 64 °F

Past Weeks' High & Low Weather Summary

 TemperatureHumidityPressure
High84 °F (Jul 26, 3:30 PM)100% (Jul 23, 4:00 AM)30.39 "Hg (Jul 23, 4:00 AM)
Low39 °F (Jul 18, 4:30 AM)21% (Jul 17, 3:00 PM)29.95 "Hg (Jul 16, 3:00 PM)
Average63 °F68%30.20 "Hg
* Reported Jul 16 10:00 AM — Jul 31 10:30 AM, Rockhampton, Weather by CustomWeather, © 2015

Note: Actual official high and low records may vary slightly from our data, if they occured in-between our weather recording intervals... More about our weather records

Advertising

Rockhampton weather history for previous 24 hours

 ConditionsComfort  
Time TempWeatherWind HumidityBarometerVisibility
10:30 AM
Fri, Jul 31
72 °FPassing clouds.8 mph50%30.24 "HgN/A
9:00 AM66 °FPassing clouds.6 mph64%30.24 "HgN/A
8:30 AM61 °FPassing clouds.5 mph83%30.24 "HgN/A
8:00 AM57 °FPassing clouds.2 mph88%30.21 "HgN/A
7:30 AM54 °FPassing clouds.6 mph94%30.21 "HgN/A
7:00 AM50 °FFog.5 mph100%30.18 "HgN/A
6:30 AM52 °FFog.No wind94%30.21 "HgN/A
6:00 AM52 °FFog.6 mph94%30.18 "HgN/A
5:30 AM52 °FCool.3 mph100%30.18 "HgN/A
5:00 AM54 °FCool.3 mph94%30.18 "HgN/A
4:30 AM54 °FCool.7 mph88%30.18 "HgN/A
4:00 AM54 °FCool.3 mph94%30.18 "HgN/A
3:30 AM59 °FCool.7 mph82%30.18 "HgN/A
3:00 AM59 °FCool.8 mph82%30.18 "HgN/A
2:30 AM55 °FCool.5 mph88%30.18 "HgN/A
2:00 AM55 °FCool.5 mph94%30.18 "HgN/A
1:30 AM55 °FCool.5 mph88%30.21 "HgN/A
1:00 AM57 °FCool.5 mph88%30.21 "HgN/A
12:30 AM57 °FCool.6 mph88%30.21 "HgN/A
12:00 AM55 °FCool.No wind94%30.21 "HgN/A
11:30 PM
Thu, Jul 30
57 °FCool.No wind88%30.24 "HgN/A
11:00 PM57 °FCool.1 mph88%30.24 "HgN/A
10:30 PM57 °FClear.No wind88%30.24 "Hg10 mi
10:00 PM57 °FClear.No wind94%30.24 "Hg10 mi
9:30 PM61 °FClear.6 mph83%30.24 "Hg10 mi
9:00 PM59 °FClear.6 mph82%30.24 "Hg10 mi
8:30 PM63 °FClear.3 mph77%30.21 "Hg10 mi
8:00 PM64 °FClear.6 mph73%30.21 "Hg10 mi
7:30 PM66 °FClear.6 mph68%30.21 "Hg10 mi
7:00 PM66 °FClear.6 mph68%30.21 "Hg10 mi
6:30 PM66 °FClear.7 mph68%30.18 "Hg10 mi
6:00 PM68 °FClear.6 mph60%30.18 "Hg10 mi
5:30 PM70 °FClear.9 mph57%30.18 "Hg10 mi
5:00 PM72 °FPassing clouds.8 mph53%30.18 "HgN/A
4:30 PM72 °FPassing clouds.9 mph53%30.18 "HgN/A
4:00 PM73 °FPassing clouds.8 mph47%30.18 "HgN/A
3:30 PM73 °FPassing clouds.10 mph47%30.18 "HgN/A
3:00 PM72 °FPassing clouds.10 mph50%30.18 "HgN/A
2:30 PM73 °FScattered clouds.9 mph47%30.18 "HgN/A
1:30 PM72 °FBroken clouds.10 mph50%30.21 "HgN/A
1:00 PM73 °FPartly sunny.10 mph47%30.21 "HgN/A
12:30 PM72 °FPartly sunny.8 mph50%30.21 "HgN/A
12:00 PM72 °FPartly sunny.10 mph50%30.24 "HgN/A
11:30 AM70 °FScattered clouds.12 mph50%30.27 "HgN/A
11:00 AM70 °FPassing clouds.13 mph50%30.27 "HgN/A
Weather by CustomWeather, © 2015

See weather overviewHow to use our weather pages